Погода в Мело

Уругвай     32°21′46″S   54°10′07″W
темп.,
°C
ветер,
м/с
пор.,
м/с
влажн.,
%
обл.,
%
осадки,
мм/ч
давл.,
гПа
погр.,
м
9 мая, вс
вс900:00+11в3109759 0.0 1026231
03:00+11в389872 0.0 1025192
06:00+10всв379831 0.0 1025162
09:00+13всв39935 0.0 1025299
12:00+19св5668100 0.0 1024805
15:00+21ссв455983 0.0 10211259
18:00+16всв337656 0.0 102031
21:00+16всв3774100 0.0 1021165
10 мая, пн
пн1000:00+15св3869100 0.0 1020202
03:00+14ссз3679100 0.2 1020151
06:00+14сз2490100 0.3 1019101
09:00+15сз369059 0.3 1020225
12:00+18з4674100 0.0 1020701
15:00+19з4764100 0.0 10181270
18:00+16ююз51078100 0.1 1019487
21:00+12ююз3108592 0.1 1021339
11 мая, вт
вт1100:00+12ю41083100 0.0 1021510
03:00+9ююз3983100 0.0 1022242
06:00+8ююз3978100 0.0 1022205
09:00+10ююз3872100 0.0 1023293
12:00+14ююз4555100 0.0 10231069
15:00+15ююз45511 0.0 10201363
18:00+11ю336998 0.0 102141
21:00+8ююз338024 0.0 102239
12 мая, ср
ср1200:00+7ююз22870 0.0 102220
03:00+6юз22910 0.0 102213
06:00+6зюз22920 0.0 102216
09:00+9юз23800 0.0 1023161
12:00+15зюз33600 0.0 1022793
15:00+16зюз34540 0.0 10211058
18:00+11зсз22710 0.0 102011
21:00+8з22790 0.0 102222
13 мая, чт
чт1300:00+7зсз22840 0.0 102211
03:00+6зсз22830 0.0 102213
06:00+6з22840 0.0 102225
09:00+10зсз22724 0.0 1023119
12:00+16з335548 0.0 1023514
15:00+18з23508 0.0 1021695
18:00+12з117013 0.0 102210
21:00+10ююв1171100 0.0 102210